Date,TemperatureHighF,TemperatureAvgF,TemperatureLowF,DewpointHighF,DewpointAvgF,DewpointLowF,HumidityHigh,HumidityAvg,HumidityLow,PressureMaxIn,PressureMinIn,WindSpeedMaxMPH,WindSpeedAvgMPH,GustSpeedMaxMPH,PrecipitationSumIn
2013-9-1,79,73,69,73,69,64,97,87,71,29.85,29.78,24,5,24,0.12
2013-9-2,75,71,68,71,67,64,94,87,77,29.90,29.80,16,6,16,0.00
2013-9-3,80,72,66,70,66,61,98,84,65,29.96,29.81,20,7,20,0.00
2013-9-4,79,69,64,66,62,58,87,77,52,30.08,29.94,13,3,13,0.00
2013-9-5,78,70,64,67,61,56,84,74,48,30.11,30.04,12,3,12,0.00
2013-9-6,81,71,63,67,63,59,89,76,57,30.11,30.01,11,2,11,0.00
2013-9-7,80,72,66,70,65,61,89,79,69,30.06,29.94,14,4,14,0.00
2013-9-8,82,74,69,71,66,64,86,77,63,29.96,29.89,16,4,16,0.00
2013-9-9,81,74,70,73,69,65,94,85,74,30.05,29.94,8,1,8,0.01
2013-9-10,84,74,68,71,67,64,90,81,59,30.15,30.04,9,1,9,0.00
2013-9-11,83,74,69,71,66,63,90,77,61,30.16,30.03,7,2,7,0.00
2013-9-12,79,73,68,70,66,64,92,79,71,30.03,29.85,26,9,26,0.00
2013-9-13,71,65,55,65,58,48,97,80,56,29.92,29.83,23,9,24,0.00
2013-9-14,75,61,51,58,52,46,90,73,50,30.04,29.90,16,1,16,0.00
2013-9-15,76,66,58,64,59,52,90,78,62,30.11,30.03,10,1,10,0.00
2013-9-16,76,69,62,63,59,55,89,71,52,30.12,30.05,16,4,16,0.00
2013-9-17,76,66,59,67,62,58,95,85,70,30.16,30.06,12,1,12,0.00
2013-9-18,72,65,59,64,60,55,93,84,73,30.17,30.07,14,1,14,0.00
2013-9-19,78,67,59,68,62,57,95,85,70,30.14,30.00,12,2,12,0.00
2013-9-20,79,70,65,66,63,60,87,78,61,30.02,29.81,18,2,18,0.00
2013-9-21,68,62,55,65,61,54,98,96,87,29.81,29.67,23,8,30,1.42
2013-9-22,68,60,53,56,52,48,95,77,60,29.88,29.78,20,5,20,0.00
2013-9-23,74,62,52,62,56,51,96,83,62,29.98,29.86,11,1,11,0.00
2013-9-24,65,61,58,62,59,56,97,93,86,29.97,29.82,11,1,11,0.03
2013-9-25,63,62,61,63,61,60,98,98,97,29.83,29.78,6,0,8,0.50
2013-9-26,75,64,60,65,60,57,98,88,65,29.98,29.83,14,2,14,0.01
2013-9-27,76,64,58,62,58,56,96,82,62,30.10,29.98,8,1,8,0.00
2013-9-28,71,62,56,61,57,54,92,83,69,30.17,30.05,11,1,11,0.00
2013-9-29,67,60,54,59,55,51,92,84,70,30.10,29.97,10,1,10,0.00
2013-9-30,71,62,56,60,56,54,92,82,66,30.04,29.96,11,1,11,0.00